Weather History for PAIM - December, 2012

Change the Weather History Date:

Tuesday, December 11, 2012

  Actual Average Record
Temperature  
Mean Temperature -1 °F -  
Max Temperature 5 °F 4 °F 26 °F (2002)
Min Temperature -7 °F -2 °F -25 °F (1998)
Degree Days  
Heating Degree Days 66    
Moisture  
Dew Point -5 °F    
Average Humidity 82    
Maximum Humidity 92    
Minimum Humidity 72    
Precipitation  
Precipitation 0.00 in - - ()
Sea Level Pressure  
Sea Level Pressure 29.86 in    
Wind  
Wind Speed 4 mph (WSW)    
Max Wind Speed 17 mph    
Max Gust Speed 33 mph    
Visibility 7 miles    
Events Snow    
Averages and records for this station are not official NWS values.
T = Trace of Precipitation, MM = Missing Value Source: NWS Daily Summary

Daily Weather History Graph

Daily Weather History Graph

Search for Another Location

Airport or City:

Trip Planner

Search our weather history database for the weather conditions in past years. The results will help you decide how hot, cold, wet, or windy it might be!

Date:

Astronomy

Dec. 11, 2012 Rise Set
Actual Time 11:34 AM AKST 2:41 PM AKST
Civil Twilight 9:58 AM AKST 4:17 PM AKST
Nautical Twilight 8:42 AM AKST 5:33 PM AKST
Astronomical Twilight 7:38 AM AKST 6:38 PM AKST
Moon 9:03 AM AKST (12/11) 2:05 PM AKST (12/11)
Length of Visible Light 6h 18m
Length of Day
3h 07m
Waning Crescent, 3% of the Moon is Illuminated
Dec 11
Waning Crescent
Dec 12
New
Dec 19
First Quarter
Dec 28
Full
Jan 4
Last Quarter

Hourly Weather History & Observations

Time (AKST) Temp. Windchill Dew Point Humidity Pressure Visibility Wind Dir Wind Speed Gust Speed Precip Events Conditions
12:06 AM -7.6 °F - -13.0 °F 77% 29.89 in 10.0 mi Variable 1.2 mph - N/A Snow Light Snow
12:26 AM -7.6 °F - -13.0 °F 77% 29.90 in 10.0 mi Variable 2.3 mph - N/A   Mostly Cloudy
12:46 AM -5.8 °F -14.5 °F -11.2 °F 77% 29.90 in 10.0 mi WSW 3.5 mph - N/A Snow Light Snow Showers
12:55 AM -6.2 °F - -11.0 °F 79% 29.90 in 10.0 mi ENE 2.3 mph - N/A Snow Light Snow Showers
1:55 AM -6.0 °F - -10.3 °F 82% 29.91 in 4.0 mi ESE 2.3 mph - N/A Snow Light Snow
2:46 AM -4.0 °F - -9.4 °F 78% 29.92 in 1.8 mi Variable 1.2 mph - N/A Snow Light Snow
3:06 AM -4.0 °F - -7.6 °F 85% 29.92 in 5.0 mi Variable 1.2 mph - N/A Snow Light Snow
3:26 AM -4.0 °F - -7.6 °F 85% 29.92 in 2.0 mi Variable 2.3 mph - N/A Snow Light Snow
3:46 AM 1.4 °F -6.2 °F -4.0 °F 78% 29.91 in 6.0 mi Variable 3.5 mph - N/A Snow Light Snow
3:55 AM 1.0 °F - -3.3 °F 82% 29.91 in 5.0 mi SW 2.3 mph - N/A Snow Light Snow
4:06 AM 1.4 °F - -2.2 °F 85% 29.90 in 3.0 mi ESE 1.2 mph - N/A Snow Light Snow
4:26 AM 3.2 °F -6.2 °F -2.2 °F 78% 29.90 in 9.0 mi Variable 4.6 mph - N/A Snow Light Snow
4:55 AM 3.7 °F -8.4 °F -1.8 °F 78% 29.91 in 6.0 mi Variable 6.9 mph - N/A Snow Light Snow
5:46 AM 3.2 °F -12.2 °F -2.2 °F 78% 29.91 in 6.0 mi WNW 10.4 mph - N/A Snow Light Snow
5:55 AM 3.0 °F -13.3 °F -2.6 °F 78% 29.91 in 6.0 mi West 11.5 mph 18.4 mph N/A Snow Light Snow
6:06 AM 3.2 °F -14.6 °F -2.2 °F 78% 29.92 in 5.0 mi West 13.8 mph 19.6 mph N/A Snow Light Snow
6:55 AM 3.2 °F -13.1 °F -2.7 °F 76% 29.93 in 4.0 mi North 11.5 mph 18.4 mph N/A Snow Light Snow
7:55 AM 4.3 °F -7.8 °F -1.7 °F 76% 29.94 in 4.0 mi West 6.9 mph - N/A Snow Light Snow
8:46 AM 5.0 °F -13.6 °F -2.2 °F 72% 29.91 in 2.0 mi North 16.1 mph 33.4 mph N/A Snow Light Snow
8:55 AM 4.5 °F -13.7 °F -1.8 °F 75% 29.91 in 2.5 mi North 15.0 mph 21.9 mph N/A Snow Light Snow
9:06 AM 5.0 °F -14.2 °F -2.2 °F 72% 29.91 in 4.0 mi North 17.3 mph 26.5 mph N/A Snow Light Snow
9:26 AM 5.0 °F -10.8 °F -2.2 °F 72% 29.92 in 4.0 mi NNW 11.5 mph 23.0 mph N/A Snow Light Snow
9:46 AM 5.0 °F -5.6 °F -2.2 °F 72% 29.92 in 6.0 mi Variable 5.8 mph - N/A Snow Light Snow
9:55 AM 4.5 °F -8.7 °F -2.6 °F 73% 29.93 in 6.0 mi North 8.1 mph 17.3 mph N/A Snow Light Snow
10:26 AM 1.4 °F -15.3 °F -2.2 °F 85% 29.94 in 7.0 mi SW 11.5 mph 13.8 mph N/A Snow Light Snow
10:46 AM 3.2 °F -7.8 °F -2.2 °F 78% 29.94 in 8.0 mi West 5.8 mph - N/A Snow Light Snow
10:55 AM 2.3 °F -5.2 °F -2.9 °F 79% 29.94 in 8.0 mi West 3.5 mph - N/A Snow Light Snow
11:46 AM 3.2 °F - -2.2 °F 78% 29.94 in 10.0 mi Variable 2.3 mph - N/A Snow Light Snow Showers
11:55 AM 3.4 °F - -3.1 °F 74% 29.93 in 10.0 mi WSW 1.2 mph - N/A Snow Light Snow Showers
12:06 PM 3.2 °F - -2.2 °F 78% 29.94 in 10.0 mi Variable 1.2 mph - N/A Snow Light Snow Showers
12:46 PM 3.2 °F -4.2 °F -2.2 °F 78% 29.95 in 1.2 mi WSW 3.5 mph - N/A Snow Light Snow
12:55 PM 2.5 °F - -1.8 °F 82% 29.95 in 1.2 mi Variable 1.2 mph - N/A Snow Light Snow
1:46 PM 3.2 °F -4.2 °F -2.2 °F 78% 29.92 in 2.0 mi WSW 3.5 mph - N/A Snow Light Snow
1:55 PM 1.9 °F -5.6 °F -2.2 °F 83% 29.92 in 1.8 mi ESE 3.5 mph - N/A Snow Light Snow
2:06 PM 1.4 °F -6.2 °F -2.2 °F 85% 29.92 in 3.0 mi SW 3.5 mph - N/A Snow Light Snow
2:26 PM 1.4 °F -12.5 °F -2.2 °F 85% 29.92 in 10.0 mi SW 8.1 mph - N/A Snow Light Snow
2:47 PM 1.4 °F -11.3 °F -2.2 °F 85% 29.91 in 8.0 mi WSW 6.9 mph - N/A Snow Light Snow
2:55 PM 0.3 °F -9.5 °F -3.3 °F 85% 29.91 in 10.0 mi Variable 4.6 mph - N/A Snow Light Snow
3:07 PM -0.4 °F -8.3 °F -4.0 °F 85% 29.91 in 10.0 mi SE 3.5 mph - N/A Snow Light Snow
3:47 PM -2.2 °F - -5.8 °F 85% 29.88 in 10.0 mi NE 1.2 mph - N/A   Mostly Cloudy
3:55 PM -3.8 °F - -7.4 °F 85% 29.87 in 10.0 mi Variable 1.2 mph - N/A   Mostly Cloudy
4:07 PM -4.0 °F - -7.6 °F 85% 29.87 in 10.0 mi ENE 2.3 mph - N/A Snow Light Snow Showers
4:27 PM -2.2 °F - -5.8 °F 85% 29.86 in 10.0 mi SW 2.3 mph - N/A   Mostly Cloudy
4:55 PM -3.8 °F - -7.4 °F 85% 29.86 in 10.0 mi NNW 2.3 mph - N/A   Mostly Cloudy
5:07 PM -4.0 °F -12.4 °F -5.8 °F 92% 29.85 in 10.0 mi WNW 3.5 mph - N/A Snow Light Snow
5:55 PM -3.5 °F - -7.8 °F 82% 29.83 in 10.0 mi NE 1.2 mph - N/A Snow Light Snow Showers
6:07 PM -4.0 °F - -7.6 °F 85% 29.82 in 10.0 mi North 2.3 mph - N/A   Overcast
6:27 PM -2.2 °F - -5.8 °F 85% 29.82 in 10.0 mi Variable 1.2 mph - N/A   Overcast
6:47 PM -2.2 °F - -4.0 °F 92% 29.80 in 10.0 mi WNW 2.3 mph - N/A Snow Light Snow Showers
6:55 PM -2.2 °F - -6.2 °F 83% 29.79 in 10.0 mi North 2.3 mph - N/A Snow Light Snow Showers
7:07 PM -2.2 °F - -5.8 °F 85% 29.78 in 10.0 mi South 1.2 mph - N/A   Overcast
7:47 PM -2.2 °F - -5.8 °F 85% 29.75 in 10.0 mi SE 2.3 mph - N/A Snow Light Snow Showers
7:55 PM -1.8 °F - -4.9 °F 87% 29.74 in 10.0 mi SE 2.3 mph - N/A Snow Light Snow Showers
8:47 PM -2.2 °F - -4.0 °F 92% 29.72 in 10.0 mi SSE 2.3 mph - N/A Snow Light Snow Showers
8:55 PM -1.7 °F -9.7 °F -4.9 °F 86% 29.71 in 10.0 mi South 3.5 mph - N/A Snow Light Snow
9:07 PM -2.2 °F - -5.8 °F 85% 29.70 in 10.0 mi South 2.3 mph - N/A Snow Light Snow
9:55 PM 0.1 °F -9.7 °F -4.2 °F 82% 29.67 in 10.0 mi SSW 4.6 mph - N/A Snow Light Snow
10:07 PM -0.4 °F - -2.2 °F 92% 29.66 in 10.0 mi Variable 2.3 mph - N/A Snow Light Snow
10:55 PM -0.8 °F -13.9 °F -3.6 °F 88% 29.62 in 10.0 mi SSE 6.9 mph - N/A Snow Light Snow
11:47 PM -0.4 °F - -4.0 °F 85% 29.59 in 10.0 mi Variable 2.3 mph - N/A Snow Light Snow Showers
11:55 PM 0.1 °F - -3.5 °F 85% 29.58 in 10.0 mi SW 2.3 mph - N/A Snow Light Snow Showers